CAPE
3 291 781 835 1139 725 365 1023 770 1321 1319 1285 1291 1204 1204 1359 1432 1267 1670 1386 1675 1427 1529 1496 1570 1614 1269 1591 617 531 1625 1456 1262 1450 1425 1541 1475 1259 1461 1412 1311 1192 1348
14 404 929 1148 1181 945 314 434 697 1362 1414 1565 1537 1594 1636 1435 1202 1599 1498 1415 1670 1532 1530 1150 1561 1273 1145 1668 1052 599 1342 1609 1522 1381 1397 1079 1104 1485 1398 1016 907 1309 1447
65 523 923 1184 1343 1145 544 490 1373 1391 1535 1572 1384 1495 1425 1459 1438 1249 1441 1529 1445 1091 1091 986 1530 1369 1502 1177 1208 1189 1373 1707 1592 1675 874 1062 1217 1490 1510 1095 1495 1515 1510
246 651 808 1078 1314 786 1167 1337 1671 1420 1775 1370 1070 1535 1497 1372 1378 972 1555 1501 1175 1281 1454 1669 1460 1026 1475 1123 1298 1410 993 1416 1698 1463 950 983 1058 1501 1636 1643 1552 1513 1501
686 781 1017 1029 1226 686 732 1619 1702 1640 1238 1139 947 1263 1453 1059 1072 1295 951 1439 1519 1389 1447 1415 1585 1443 1203 1207 1372 1656 1617 1144 1192 1175 954 661 565 1550 1590 1472 1689 1586 1464
873 866 1179 1068 886 901 948 1299 1435 1523 1063 1348 1247 1045 1244 1249 1451 1362 1045 1224 1490 1465 1192 1348 1413 1444 1301 1316 1321 1446 1442 1518 617 64 178 356 753 1310 1538 1451 912 1600 1615
800 942 1188 1496 1150 1301 1365 1244 1054 918 965 1251 1501 1282 1271 1283 1392 1245 1362 1326 1502 1210 1436 1174 1042 1226 1443 1415 1358 1528 1256 1123 912 1077 942 1105 1398 1558 1586 608 217 1475 1627
580 941 1098 1355 1198 1545 1384 1199 1022 1083 1137 1250 1473 1549 1428 1378 1402 1458 1362 1320 1195 1410 1229 1005 1211 1342 1464 1334 1438 1651 955 758 951 1430 1126 1204 1320 1251 1000 402 288 607 1046
752 1015 1047 1510 1519 1599 1196 1160 1679 1426 1441 1637 1598 1084 1604 1371 1641 1381 1445 1381 1423 1379 1373 1419 1204 859 1242 1349 1193 601 892 610 448 577 621 975 1306 1429 1653 1141 853 1318 1634
757 953 1313 1413 1443 1445 852 1193 1696 1558 1792 1542 1745 1216 1529 1228 1693 1497 1154 1467 1501 1382 1338 1464 1288 784 1233 1033 1149 1504 1232 408 840 843 1064 979 1196 1430 1340 1400 1639 1534 1473
938 1048 1025 1024 1150 1334 1301 912 1584 1812 1683 1729 1819 1680 1505 1663 1708 1628 1248 1511 1526 1671 1332 1180 921 619 1219 1205 1076 753 1060 620 951 720 700 984 985 1586 1492 1347 1513 1623 1512
540 823 934 1006 787 638 413 945 1681 1975 1600 1716 1813 2120 1796 1615 1687 1174 1391 1596 1548 1521 1545 1513 895 1084 1045 1068 1332 709 691 776 597 600 455 794 1303 1461 1421 1171 1000 1274 1306
178 546 718 910 1140 716 669 773 1142 1336 1477 1745 1924 1935 1770 1715 1207 1052 1533 1790 1829 1761 1070 1639 1416 464 268 612 249 436 574 753 770 601 922 1192 1216 1341 1197 1043 1263 1117 1330
127 442 462 806 994 982 907 941 1084 890 1086 1167 1374 1675 1379 909 1301 1185 1280 1783 1783 1712 1310 1540 1074 1025 152 262 195 108 335 275 369 257 197 239 534 1308 1079 1087 960 1212 1294
2 91 278 694 948 913 1020 1296 1016 893 648 779 1151 1373 1321 1374 1388 1063 926 1078 1131 1265 945 735 993 680 401 401 553 422 85 338 422 195 152 126 268 288 665 840 774 923 855
0 0 83 522 806 585 614 1031 785 612 557 657 921 1213 1227 1593 1539 1378 755 747 834 915 1050 1105 683 466 516 633 410 449 234 176 117 96 70 46 34 60 524 434 376 723 806
62 108 0 168 491 581 550 656 709 468 346 442 778 1028 1191 1312 1343 1290 1127 621 735 919 832 857 744 368 523 291 295 425 182 228 120 109 82 76 19 35 1 28 128 183 308
272 354 141 1 19 275 415 591 755 568 599 738 904 1005 1110 1314 1227 1239 959 637 950 1145 1218 820 902 661 254 409 107 7 60 192 291 144 148 41 60 53 0 0 33 80 126
528 612 434 258 183 262 456 575 852 877 805 844 1067 1178 1309 1345 1370 1312 1210 1021 942 945 1101 1020 1134 885 763 613 57 40 534 632 326 208 57 77 56 58 137 1 49 46 11
640 721 657 555 372 487 657 724 808 935 1217 1157 1478 1579 1444 1407 1380 1186 1047 1097 1129 1059 987 1050 880 820 705 498 267 105 421 815 754 397 283 74 26 0 55 61 77 71 9
536 642 629 579 679 632 689 765 866 819 1064 1194 1303 1461 1434 1414 1352 1300 1188 1097 950 668 583 779 863 530 462 308 174 505 761 824 677 609 467 185 152 144 6 8 2 35 66
419 482 572 636 684 693 772 824 917 934 1007 1041 1229 1452 1567 1488 1405 1262 1104 1137 1001 726 862 986 595 601 848 736 467 781 638 475 168 508 281 296 373 266 257 297 118 129 102
335 427 518 637 710 686 756 770 694 638 743 755 889 1114 1360 1529 1488 1555 1544 1374 956 1059 1090 701 690 626 640 1024 761 495 523 617 625 517 618 589 571 502 151 376 394 410 329
310 435 563 695 730 723 723 649 749 844 789 850 922 1071 1126 1453 1501 1617 1590 1506 1396 1188 1134 1199 1169 1102 978 994 1028 737 795 688 688 429 704 785 771 816 589 250 350 544 285
313 395 532 702 769 771 707 790 817 819 782 771 753 807 893 1039 1356 1572 1626 1610 1464 1454 1350 1388 1320 1262 1255 1083 1166 1135 973 963 761 676 409 515 638 776 732 456 140 510 470
366 411 570 660 689 830 819 853 849 801 743 578 666 674 852 1116 1283 1309 1445 1523 1566 1505 1361 1300 1229 1185 877 972 981 1070 1011 706 639 527 437 531 747 638 802 804 428 518 331
CIN
-28 -24 -2 -1 0 -1 -19 -1 -9 0 -2 -5 -1 -3 0 0 0 0 0 0 0 -1 0 -1 0 0 -10 -1 -42 -49 0 0 0 0 0 0 0 0 0 0 -1 -1 0
-54 -28 -1 0 0 0 -27 -26 -9 0 -1 -2 -2 0 0 0 0 0 0 0 0 0 0 -1 0 0 -3 0 -7 -51 0 0 0 0 0 -1 0 0 0 0 -2 0 0
-108 -23 -1 -1 -1 0 -16 -17 -1 0 0 0 -2 -2 0 0 0 -2 0 0 0 -1 -1 -2 0 0 0 0 0 0 0 0 0 0 -1 -1 0 0 0 0 0 0 0
-75 -18 -5 -3 -1 -6 -1 -1 -1 0 0 -1 -1 -2 -2 -2 -2 -2 0 0 0 0 0 0 0 -2 0 -1 0 0 -1 0 0 -1 -1 -1 -1 0 0 0 0 0 0
-42 -18 -6 -6 -1 -13 -11 -1 0 -1 -4 -4 -6 -1 -1 -2 -1 0 -1 0 0 0 0 0 0 0 0 0 0 0 0 0 -4 -1 -1 -10 -9 -1 0 -1 0 0 0
-32 -16 -17 -7 -7 -1 -4 -1 -4 -3 -4 -5 -3 -1 -5 -2 0 0 0 0 0 0 0 0 0 0 0 -1 -3 -2 -2 0 -28 -134 -95 -43 -1 0 0 0 -5 0 0
-36 -12 -4 -1 -1 -2 -2 -5 -4 -6 -10 -5 -1 -2 -2 -2 0 -1 0 0 0 0 0 0 -3 -6 -5 -7 -9 -6 -11 -14 -14 -3 -1 -1 0 -1 0 -34 -93 0 0
-46 -10 0 -1 -5 -1 -2 -6 -5 -7 -2 -3 0 0 -1 0 0 -1 -2 -2 -1 0 0 -2 -6 -7 -8 -13 -11 -9 -21 -26 -7 0 0 -1 -3 -4 -3 -56 -75 -28 -9
-29 -10 0 0 0 -1 -5 -8 -2 -5 -4 -1 0 -7 0 -1 0 -2 -1 -2 -1 0 0 0 -3 -11 -15 -19 -22 -42 -27 -38 -33 -19 -16 0 -3 -1 0 -2 -12 0 0
-21 -10 0 0 0 0 -13 -7 0 -2 0 -2 0 -3 0 -3 -1 -1 -1 -1 0 0 0 0 -9 -18 -9 -13 -11 -7 -20 -57 -13 -3 0 -1 -2 -1 -1 -1 0 0 0
-8 0 0 -1 -2 -5 -9 -18 -1 0 -1 0 0 0 -1 0 0 0 -2 0 -1 -2 -3 -3 -9 -19 -12 -12 -13 -18 -16 -17 -11 -3 -1 -5 -8 -1 0 -1 -1 0 -1
-70 -23 -14 -8 -18 -36 -66 -30 0 0 0 0 0 0 0 0 0 0 -1 -1 0 0 0 -2 -9 -8 -13 -7 -8 -31 -33 -18 -21 -16 -11 -8 -4 -2 -1 -4 -3 -1 -2
-158 -85 -61 -35 -16 -42 -46 -37 -11 -1 0 0 0 0 0 0 0 0 0 -1 0 0 -1 -1 -2 -47 -51 -19 -39 -26 -28 -28 -20 -21 -10 -4 -3 0 -2 -16 -3 -3 -1
-195 -116 -110 -64 -45 -37 -39 -30 -14 -18 -11 -4 -5 -6 -7 -10 -2 -4 -1 0 0 0 -2 -1 -7 -13 -74 -65 -55 -60 -26 -25 -21 -28 -30 -26 -19 -2 -2 -7 -16 -3 -1
-185 -209 -150 -93 -59 -54 -47 -18 -23 -26 -43 -30 -17 -16 -9 -1 -1 -13 -20 -13 -11 -8 -12 -28 -23 -15 -30 -48 -36 -44 -59 -22 -21 -26 -17 -19 -16 -18 -2 -3 -8 -8 -9
0 0 -204 -135 -91 -94 -87 -48 -57 -61 -52 -47 -32 -18 -19 -2 -5 -6 -27 -28 -26 -21 -13 -24 -49 -52 -41 -44 -46 -46 -51 -45 -52 -48 -32 -24 -44 -33 -1 -2 -8 -4 -4
-230 -186 0 -195 -140 -117 -99 -80 -68 -78 -59 -51 -34 -31 -24 -21 -24 -20 -21 -29 -21 -25 -29 -34 -43 -61 -48 -50 -54 -52 -68 -49 -63 -50 -44 -22 -24 -20 -4 -37 -20 -19 -23
-150 -151 -192 -34 -220 -164 -127 -91 -63 -62 -52 -36 -31 -27 -30 -30 -31 -25 -29 -29 -16 -26 -24 -50 -45 -52 -59 -52 -63 -68 -77 -52 -51 -52 -40 -72 -23 -13 0 0 -39 -44 -54
-127 -127 -154 -171 -160 -153 -125 -94 -63 -52 -61 -37 -30 -27 -30 -29 -30 -29 -23 -21 -29 -20 -20 -31 -35 -47 -29 -40 -79 -97 -41 -30 -43 -65 -78 -58 -50 -33 -11 -35 -25 -36 -56
-127 -125 -128 -148 -169 -141 -107 -97 -74 -60 -45 -61 -39 -36 -37 -31 -30 -31 -24 -26 -27 -20 -23 -24 -38 -46 -46 -24 -53 -92 -48 -33 -30 -63 -63 -89 -127 0 -58 -33 -15 -19 -34
-143 -138 -149 -146 -145 -143 -132 -109 -76 -61 -47 -54 -49 -59 -52 -45 -33 -34 -24 -23 -13 -16 -17 -14 -32 -44 -43 -53 -63 -18 -18 -29 -45 -57 -54 -90 -61 -53 -161 -115 -109 -35 -10
-193 -183 -167 -147 -144 -139 -116 -103 -81 -63 -49 -41 -45 -50 -49 -44 -43 -37 -37 -24 -20 -20 -15 -22 -18 -14 -15 -25 -14 0 -1 -13 -56 -44 -95 -92 -58 -42 -41 -15 -55 -35 -34
-229 -211 -195 -157 -145 -135 -133 -142 -132 -130 -103 -70 -53 -35 -42 -50 -46 -43 -39 -32 -23 -24 -16 -16 -19 -19 -8 -3 -27 -11 -1 -1 -3 -39 -30 -44 -53 -48 -99 -44 -32 -18 -13
-222 -226 -216 -185 -172 -169 -180 -165 -133 -94 -80 -64 -42 -25 -27 -45 -39 -43 -44 -37 -37 -27 -28 -19 -18 -17 -9 -1 -1 -21 -12 -3 0 -7 -14 -17 -23 -25 -38 -76 -70 -47 -68
-286 -273 -251 -254 -215 -191 -199 -170 -141 -117 -112 -102 -91 -63 -52 -49 -44 -42 -44 -46 -41 -36 -30 -30 -23 -22 -12 -8 -1 0 0 0 -1 0 -33 -16 -17 -20 -40 -59 -104 -50 -58
-347 -360 -313 -259 -219 -221 -219 -189 -196 -183 -161 -150 -122 -110 -77 -47 -43 -60 -50 -62 -63 -57 -48 -40 -39 -39 -29 -16 -23 -28 -11 -2 0 -3 -6 -15 -2 -36 -22 -34 -76 -58 -118
Wind_Speed
28 27 24 20 11 22 8 6 13 15 16 27 27 27 26 25 25 26 26 25 26 28 27 24 24 27 26 24 25 27 27 28 29 29 28 28 29 28 29 30 30 29 29
28 27 27 25 25 14 12 14 18 24 24 25 27 26 25 25 26 26 26 25 27 27 25 26 27 26 26 27 26 27 27 27 28 27 26 27 27 28 28 29 29 29 29
26 26 24 20 17 12 18 19 16 24 23 23 26 26 25 25 25 26 27 27 28 28 28 27 28 28 27 27 25 25 26 26 26 25 25 26 26 26 27 28 28 28 28
26 26 23 20 7 16 21 21 17 19 21 23 24 26 25 25 26 27 27 28 28 28 27 27 27 27 26 25 24 23 24 25 24 24 24 24 24 24 26 27 27 27 27
24 25 24 23 17 20 22 20 19 19 21 23 22 22 24 26 26 27 27 28 28 28 27 26 26 25 25 24 24 19 23 22 22 23 22 24 23 23 24 25 26 26 26
21 24 25 21 21 22 22 20 21 20 21 22 22 23 23 25 21 27 27 27 27 26 26 26 23 22 22 22 20 17 18 17 19 19 21 22 22 22 23 24 24 25 25
26 26 22 21 22 20 18 19 19 19 19 20 23 24 23 20 21 25 26 26 26 25 24 25 24 22 22 21 19 16 17 17 15 17 18 19 20 22 21 20 23 24 25
26 25 23 25 24 21 19 17 18 16 15 16 17 23 23 23 23 23 23 24 25 23 23 24 22 20 17 18 19 17 15 15 15 15 15 14 17 18 18 20 20 22 23
25 24 25 24 25 23 20 18 18 17 15 15 16 19 22 22 24 23 21 23 23 22 22 21 20 17 15 17 20 18 16 15 14 14 15 14 14 15 17 18 19 20 22
25 24 24 24 23 22 21 18 16 18 18 18 20 21 20 20 20 22 21 20 22 22 21 21 20 20 16 15 18 17 17 16 16 15 13 13 14 13 13 15 16 18 20
24 23 23 25 24 23 21 19 18 19 19 20 19 21 20 19 18 19 17 19 20 21 20 20 20 19 18 18 18 18 16 16 15 14 12 12 11 11 11 12 12 13 13
25 24 24 23 24 23 22 20 19 18 19 18 18 18 18 17 16 17 17 17 17 17 18 19 19 19 17 16 17 18 16 16 16 16 13 11 11 10 11 11 11 10 11
24 23 23 22 22 23 22 22 21 20 19 20 18 17 17 16 16 17 16 16 16 16 17 17 18 17 17 17 16 15 14 15 15 15 17 14 13 10 11 11 11 11 11
24 24 23 23 23 23 22 21 20 20 20 19 19 19 18 17 16 16 16 15 16 16 16 16 16 16 16 15 13 13 12 13 12 14 13 13 12 13 9 12 11 12 12
24 24 24 24 24 24 22 21 20 20 20 19 19 19 18 17 16 16 16 16 16 16 15 15 15 14 13 12 11 11 12 11 12 13 12 11 11 11 14 10 10 13 14
23 24 24 24 24 24 23 22 21 20 20 20 20 19 18 17 16 17 17 17 16 15 14 14 13 11 9 9 9 10 10 9 10 10 11 10 12 13 11 10 8 8 7
23 23 24 23 23 23 23 22 22 21 20 20 20 19 19 18 17 17 17 17 15 14 13 13 12 10 8 11 11 8 8 8 8 11 12 13 11 11 8 5 8 8 12
22 22 23 23 22 22 22 22 22 21 20 20 20 19 19 18 18 18 18 17 15 14 12 11 10 10 9 10 8 6 7 8 9 12 12 13 13 12 10 12 8 9 7
23 22 22 22 22 21 22 22 22 21 21 20 20 21 19 19 18 18 18 18 17 15 13 10 8 9 12 9 11 9 5 7 7 8 11 10 10 11 11 13 13 13 11
23 23 23 22 21 20 19 18 18 19 19 19 20 19 19 19 18 17 17 16 15 11 10 7 7 7 5 8 9 7 7 10 9 9 8 8 8 8 9 10 10 12 12
22 23 23 22 22 20 19 17 17 16 19 21 18 16 12 6 6 18 18 15 11 8 9 7 10 7 9 8 7 13 15 7 7 8 8 9 10 8 7 9 9 11 10
21 21 23 23 22 22 20 20 18 9 2 16 20 6 5 5 6 6 8 12 14 5 14 10 7 9 9 10 14 20 22 18 13 17 12 7 7 7 7 8 9 12 11
19 20 21 22 22 21 19 16 12 7 7 15 12 13 7 5 4 4 8 8 23 24 21 7 8 10 16 17 14 15 19 17 27 18 21 16 13 8 5 6 6 7 7
20 19 20 19 20 19 17 16 13 11 9 8 11 10 11 18 20 11 5 5 7 10 7 13 18 18 19 28 19 13 12 19 21 23 19 21 20 12 8 5 2 4 5
17 19 19 18 19 17 15 14 12 11 9 8 9 10 7 19 20 19 17 14 14 16 20 23 22 18 17 20 23 22 20 17 14 14 28 23 22 17 5 2 3 2 2
13 15 13 12 15 15 14 12 11 9 6 6 9 8 6 9 12 13 14 14 13 13 15 17 17 18 14 16 16 16 17 20 22 18 19 25 27 27 18 9 6 5 2
Wind_Direction
151 152 163 175 197 156 204 210 185 180 173 110 121 118 126 124 119 117 119 122 114 107 89 73 72 84 77 66 68 77 76 86 86 84 80 80 85 85 89 95 104 90 92
121 143 136 105 99 188 191 182 169 149 148 146 131 127 127 122 120 115 120 124 111 94 77 83 85 80 79 79 73 77 84 81 87 82 80 78 82 86 92 98 102 92 97
113 118 108 90 72 205 179 170 177 144 154 151 134 126 125 127 125 114 119 113 110 99 88 85 93 88 86 80 75 76 80 88 87 80 79 82 81 85 89 98 97 96 100
114 117 105 94 268 206 174 170 179 168 163 153 146 127 131 126 126 118 115 107 110 103 91 91 89 89 83 74 67 69 75 84 82 82 79 77 77 80 86 97 97 98 98
111 115 114 115 205 194 177 177 173 171 163 153 154 151 135 126 124 117 110 111 119 99 95 88 84 82 82 77 82 48 77 70 75 81 75 89 82 78 87 91 96 99 113
98 110 152 174 177 177 176 178 169 167 163 157 154 149 143 130 156 126 119 119 109 92 95 92 74 67 71 80 69 41 54 52 58 57 73 82 78 83 86 93 100 101 109
126 129 179 180 172 174 181 180 178 171 168 167 152 140 142 155 158 135 124 114 103 100 89 94 91 78 80 83 70 39 49 51 39 49 59 67 69 91 81 72 96 107 108
163 170 175 164 171 172 176 183 176 183 185 176 173 147 145 143 142 137 143 136 116 94 92 105 85 63 27 55 72 56 40 38 36 35 35 33 56 69 71 78 79 101 117
168 173 170 171 170 170 172 175 174 177 186 182 174 165 148 149 137 136 149 134 111 91 98 87 70 30 14 36 57 54 40 34 22 20 34 30 32 45 70 79 84 94 115
163 172 177 176 176 173 169 179 185 172 169 170 159 155 160 160 155 140 144 151 127 115 115 112 112 102 14 19 43 51 49 42 39 41 24 25 42 34 41 59 76 96 112
166 177 177 176 176 176 178 180 180 172 168 164 170 159 155 159 165 154 168 149 133 121 111 135 128 127 132 129 118 97 55 59 43 23 359 10 12 8 3 25 35 47 59
169 174 176 177 178 178 178 181 179 177 174 176 180 179 174 172 175 172 170 167 159 169 144 125 120 118 135 135 136 126 126 138 136 117 52 16 341 355 355 342 333 356 33
174 176 178 183 185 183 182 178 177 178 178 171 187 186 187 190 187 175 179 180 183 180 158 131 132 133 128 128 125 126 130 129 132 110 139 121 75 351 326 351 337 334 325
174 176 177 178 180 177 182 183 187 187 181 183 180 179 190 186 190 191 187 191 183 177 167 154 146 137 122 124 114 106 125 139 113 127 107 118 110 95 46 306 326 320 315
172 175 176 175 174 173 180 185 189 186 185 186 187 185 190 195 192 195 193 193 189 169 157 142 158 146 123 118 111 122 118 129 136 158 123 107 103 113 137 71 28 309 299
168 169 171 175 176 176 177 184 186 185 185 191 189 193 193 203 210 199 193 191 183 166 164 169 166 177 170 170 155 119 95 105 121 138 141 110 137 136 129 111 84 66 26
160 161 162 164 169 174 178 189 186 178 175 183 186 191 191 197 209 205 200 195 183 174 170 173 164 159 142 201 202 122 129 128 139 171 163 156 137 139 116 134 138 116 135
158 158 157 159 158 159 169 185 195 190 185 186 189 194 196 196 200 209 206 203 193 190 179 178 178 176 181 190 162 146 141 158 158 176 169 166 163 157 144 161 143 153 127
169 164 161 156 158 156 165 179 191 191 194 197 201 204 201 202 201 204 206 207 212 201 189 161 132 153 204 179 208 195 138 172 164 142 165 156 156 154 151 165 164 157 161
173 172 172 166 162 155 148 151 162 173 181 190 197 191 195 195 200 192 202 197 196 174 161 122 100 77 101 179 197 202 203 208 196 176 162 153 143 135 150 155 150 166 168
177 177 173 170 168 159 158 151 157 159 187 208 189 181 160 73 72 202 213 198 177 162 182 42 27 53 41 52 57 229 237 175 119 151 145 158 165 140 141 162 169 175 162
173 171 173 176 173 172 170 178 174 358 82 311 296 44 52 47 34 52 152 185 202 70 352 11 41 28 29 32 15 355 347 3 35 9 40 77 132 133 136 154 166 179 176
166 168 166 169 170 171 168 158 133 339 314 322 345 337 8 17 45 75 161 171 246 310 325 25 22 12 352 351 3 1 354 359 317 353 343 5 26 49 95 139 158 162 170
169 163 164 163 164 162 157 157 147 126 103 73 12 10 352 305 305 345 44 24 16 6 19 352 335 340 334 280 336 352 352 336 339 330 343 338 345 16 27 34 104 168 177
162 163 160 159 162 156 151 152 143 144 122 96 54 19 43 308 304 313 325 339 340 333 324 319 323 333 334 326 318 321 328 334 341 343 311 328 335 351 31 84 98 68 141
154 154 150 148 158 157 156 153 151 143 116 54 32 59 93 25 354 345 341 340 340 337 331 330 329 327 329 324 324 325 325 321 321 328 329 322 315 312 345 18 30 18 95